Flag for U.S.A. Weather past 2 weeks in Vista, California, U.S.A.

Now
69 °F

Overcast.


Feels Like: 69 °F
Forecast: 62 / 77 °F
Wind: 3 mph from West

Location: McClellan-Palomar Airport

Current Time: Jul 11, 2014 at 9:44:22 PM

Latest Report: Jul 11, 2014 at 8:53 PM


Visibility: 10 mi

Pressure: 29.97 "Hg

Humidity: 79%

Dew point: 62 °F

Location of VistaLocation

Historic Weather in Vista — Graph

°F

Vista temperature yesterday

Maximum temperature yesterday: 75 °F (at 1:53 PM)
Minimum temperature yesterday: 68 °F (at 12:53 AM)
Average temperature yesterday: 70 °F

Past Weeks' High & Low Weather Summary

 TemperatureHumidityPressure
High78 °F (Jul 6, 11:53 AM)93% (Jul 7, 5:53 AM)30.01 "Hg (Jul 7, 5:53 AM)
Low64 °F (Jun 28, 3:53 AM)52% (Jul 6, 4:53 PM)29.80 "Hg (Jun 28, 4:53 AM)
Average69 °F76%29.90 "Hg
* Reported Jun 26 8:53 PM — Jul 11 8:53 PM, Vista, Weather by CustomWeather, © 2014

Note: Actual official high and low records may vary slightly from our data, if they occured in-between our weather recording intervals... More about our weather records

Advertising

Vista weather history for previous 24 hours

 ConditionsComfort  
Time TempWeatherWind HumidityBarometerVisibility
8:53 PM
Jul 11
69 °FOvercast.3 mph79%29.97 "Hg10 mi
7:53 PM70 °FPartly sunny.3 mph76%29.97 "Hg10 mi
6:53 PM70 °FSunny.8 mph73%29.96 "Hg10 mi
5:53 PM71 °FScattered clouds.7 mph73%29.95 "Hg10 mi
4:53 PM72 °FSunny.7 mph68%29.96 "Hg10 mi
3:53 PM74 °FSunny.10 mph64%29.96 "Hg10 mi
2:53 PM74 °FSunny.10 mph64%29.97 "Hg10 mi
1:53 PM74 °FSunny.9 mph62%29.97 "Hg10 mi
12:53 PM73 °FSunny.9 mph62%29.98 "Hg10 mi
11:53 AM74 °FSunny.6 mph62%29.98 "Hg10 mi
10:53 AM73 °FSunny.8 mph64%29.99 "Hg10 mi
9:53 AM71 °FSunny.6 mph68%29.98 "Hg10 mi
8:53 AM70 °FPartly sunny.No wind68%29.98 "Hg10 mi
7:53 AM69 °FOvercast.No wind73%29.98 "Hg10 mi
6:53 AM68 °FOvercast.5 mph73%29.96 "Hg10 mi
5:53 AM68 °FOvercast.3 mph76%29.95 "Hg10 mi
4:53 AM68 °FOvercast.No wind78%29.94 "Hg10 mi
3:53 AM69 °FOvercast.No wind76%29.93 "Hg10 mi
2:53 AM68 °FOvercast.No wind78%29.93 "Hg10 mi
1:53 AM69 °FOvercast.No wind76%29.93 "Hg10 mi
12:53 AM69 °FOvercast.No wind79%29.95 "Hg10 mi
11:53 PM
Jul 10
69 °FPassing clouds.No wind79%29.94 "Hg10 mi
10:53 PM69 °FClear.No wind79%29.94 "Hg10 mi
9:53 PM69 °FOvercast.5 mph79%29.94 "Hg10 mi
Weather by CustomWeather, © 2014

See weather overviewHow to use our weather pages